TimeGMT,TemperatureF,Dew PointF,Humidity,Sea Level PressureIn,VisibilityMPH,Wind Direction,Wind SpeedMPH,Gust SpeedMPH,PrecipitationIn,Events,Conditions,WindDirDegrees,DateUTC
12:50 AM,48.2,44.6,87,29.30,6.2,SSW,23.0,-,N/A,,Scattered Clouds,210,2012-12-25 00:50:00
1:50 AM,48.2,44.6,87,29.27,6.2,SW,31.1,42.6,N/A,,Mostly Cloudy,220,2012-12-25 01:50:00
2:50 AM,49,43,74,29.26,9,SW,31.1,,,Rain,Light Rain Showers,220,2012-12-25 02:50:00
2:50 AM,50.0,42.8,76,29.24,6.2,SW,31.1,-,N/A,,Mostly Cloudy,220,2012-12-25 02:50:00
3:50 AM,46.4,42.8,87,29.21,6.2,SW,25.3,-,N/A,,Mostly Cloudy,220,2012-12-25 03:50:00
4:50 AM,48.2,44.6,87,29.18,6.2,SW,26.5,-,N/A,,Scattered Clouds,220,2012-12-25 04:50:00
5:50 AM,48,45,85,29.18,9,WSW,29.9,,,Rain,Light Rain Showers,240,2012-12-25 05:50:00
5:50 AM,48.2,44.6,87,29.15,6.2,WSW,29.9,-,N/A,,Scattered Clouds,240,2012-12-25 05:50:00
6:50 AM,46.4,42.8,87,29.21,6.2,WNW,19.6,-,N/A,Rain,Light Rain Showers,290,2012-12-25 06:50:00
7:50 AM,48.2,44.6,87,29.27,6.2,West,21.9,-,N/A,,Scattered Clouds,280,2012-12-25 07:50:00
8:50 AM,48,44,81,29.34,9,WNW,17.3,,,,Mostly Cloudy,290,2012-12-25 08:50:00
8:50 AM,48.2,44.6,87,29.33,6.2,WNW,17.3,32.2,N/A,,Scattered Clouds,290,2012-12-25 08:50:00
9:50 AM,48.2,44.6,87,29.36,6.2,WNW,17.3,29.9,N/A,,Scattered Clouds,290,2012-12-25 09:50:00
10:50 AM,50.0,44.6,82,29.42,6.2,WNW,19.6,33.4,N/A,,Scattered Clouds,290,2012-12-25 10:50:00
11:50 AM,50,45,76,29.47,11,WNW,16.1,,,,Mostly Cloudy,290,2012-12-25 11:50:00
11:50 AM,50.0,44.6,82,29.44,6.2,WNW,16.1,29.9,N/A,,Scattered Clouds,290,2012-12-25 11:50:00
12:50 PM,50.0,44.6,82,29.47,5.0,West,20.7,34.5,N/A,,Scattered Clouds,280,2012-12-25 12:50:00
1:50 PM,50.0,44.6,82,29.50,6.2,West,20.7,33.4,N/A,,Scattered Clouds,280,2012-12-25 13:50:00
2:50 PM,49,45,79,29.55,12,WNW,17.3,,,,Partly Cloudy,290,2012-12-25 14:50:00
2:50 PM,50.0,44.6,82,29.53,6.2,WNW,17.3,33.4,N/A,,Scattered Clouds,290,2012-12-25 14:50:00
3:50 PM,48.2,44.6,87,29.56,6.2,WNW,15.0,26.5,N/A,,Scattered Clouds,290,2012-12-25 15:50:00
4:50 PM,48.2,44.6,87,29.59,5.0,West,13.8,33.4,N/A,Rain,Light Rain Showers,280,2012-12-25 16:50:00
5:50 PM,46,44,88,29.64,5,WNW,16.1,,,Rain,Light Rain Showers,290,2012-12-25 17:50:00
5:50 PM,46.4,42.8,87,29.62,5.0,WNW,16.1,28.8,N/A,Rain,Light Rain Showers,290,2012-12-25 17:50:00
6:50 PM,48.2,42.8,82,29.65,6.2,West,18.4,33.4,N/A,,Overcast,280,2012-12-25 18:50:00
7:50 PM,46.4,42.8,87,29.65,6.2,West,19.6,32.2,N/A,,Mostly Cloudy,280,2012-12-25 19:50:00
8:50 PM,49,41,67,29.71,12,WNW,26.5,,,,Partly Cloudy,290,2012-12-25 20:50:00
8:50 PM,48.2,41.0,76,29.68,6.2,WNW,26.5,42.6,N/A,,Mostly Cloudy,290,2012-12-25 20:50:00
9:50 PM,48.2,41.0,76,29.74,6.2,WNW,23.0,41.4,N/A,,Mostly Cloudy,300,2012-12-25 21:50:00
10:50 PM,46.4,41.0,81,29.77,6.2,WNW,15.0,26.5,N/A,,Scattered Clouds,290,2012-12-25 22:50:00
11:50 PM,46,44,89,29.81,7,WNW,12.7,,,Rain,Light Rain Showers,290,2012-12-25 23:50:00
11:50 PM,46.4,44.6,93,29.80,6.2,WNW,12.7,-,N/A,,Mostly Cloudy,290,2012-12-25 23:50:00